Location: Gandikunta
(16.3784°N, 80.8378°E)
Time: 00:03:30
(UTC+00:00)

GPS 2-15 Rocket1 - Pass Details

Date: 19 May 2025
Orbit: 609 x 655 km, 19.8° (Epoch: 18 June)

Event Time Altitude Azimuth Distance (km) Brightness Sun altitude
Rises 14:16:46 0° 282° (WNW) 2,848 7.9 -17.3°
Reaches altitude 10° 14:19:06 10° 283° (WNW) 1,946 6.8 -17.8°
Maximum altitude 14:23:40 85° 12° (NNE) 613 2.9 -18.8°
Enters shadow 14:25:12 42° 97° (E) 874 3.3 -19.1°
